Location: Unspecified
(0.0000°N, 0.0000°E)
Time: 05:17:46
(UTC+00:00)

Tiros 1 despin weight - Pass Details

Date: 10 October 2020
Orbit: 594 x 641 km, 48.2° (Epoch: 28 October)

Event Time Altitude Azimuth Distance (km) Brightness Sun altitude
Rises 05:11:55 0° 249° (WSW) 2,838 - -8.7°
Exits shadow 05:14:45 - 268° (W) 1,966 ? -8.0°
Reaches altitude 10° 05:14:55 10° 269° (W) 1,926 ? -8.0°
Maximum altitude 05:17:45 17° 310° (NW) 1,528 ? -7.2°
Drops below altitude 10° 05:20:35 10° 350° (N) 1,913 ? -6.5°
Sets 05:23:33 0° 11° (N) 2,809 ? -5.8°
